Skip Page Navigation
NASA JPL Caltech
NASA Logo - Jet Propulsion Laboratory + View the NASA Portal
+ Near-Earth Object (NEO) Program
Search JPL
JPL Home Earth Solar System Stars & Galaxies Technology
JPL Solar System Dynamics
BODIES ORBITS EPHEMERIDES TOOLS PHYSICAL DATA DISCOVERY FAQ SITE MAP
JPL Small-Body Database Browser
Search: [ help ]  
9959 (1991 VF2)
Classification: Main-belt Asteroid          SPK-ID: 2009959
Ephemeris | Orbit Diagram | Orbital Elements | Physical Parameters | Discovery Circumstances | Close-Approach Data ]

[ show orbit diagram ]
Orbital Elements at Epoch 2457000.5 (2014-Dec-09.0) TDB
Reference: JPL 10 (heliocentric ecliptic J2000)
 Element Value Uncertainty (1-sigma)   Units 
e .139879614387053 4.8843e-08  
a 2.243838910077163 1.38e-08 AU
q 1.929971588588904 1.1159e-07 AU
i 5.648501525909455 6.7471e-06 deg
node 216.221039539449 5.3848e-05 deg
peri 247.1167042832875 6.2089e-05 deg
M 274.5846813747714 3.614e-05 deg
tp 2457291.785726222172
(2015-Sep-26.28572622)
0.00012502 JED
period 1227.682143294249
3.36
1.1326e-05
3.101e-08
d
yr
n .2932355104832015 2.7051e-09 deg/d
Q 2.557706231565422 1.573e-08 AU
  Orbit Determination Parameters
   # obs. used (total)      925  
   data-arc span      9427 days (25.81 yr)  
   first obs. used      1989-03-02  
   last obs. used      2014-12-23  
   planetary ephem.      DE431  
   SB-pert. ephem.      SB431-BIG16  
   condition code      0  
   fit RMS      .51979  
   data source      ORB  
   producer      Otto Matic  
   solution date      2015-Jan-08 00:31:59  

Additional Information
 Earth MOID = .954794 AU 
 T_jup = 3.613 
[ show covariance matrix ]

Ephemeris | Orbit Diagram | Orbital Elements | Physical Parameters | Discovery Circumstances | Close-Approach Data ]

Physical Parameter Table
Parameter Symbol Value Units Sigma Reference Notes
absolute magnitude H 14.4 mag n/a MPO309229  

9959 (1991 VF2)          Discovered 1991-Nov-09 by Ueda, S., Kaneda, H. at Kushiro (399)
Reference: 19990202/Numbers.arcLast Updated: 2004-04-19

[ show close-approach data ]
Alternate Designations
 1991 VF2 = 1989 EZ3 
Ephemeris | Orbit Diagram | Orbital Elements | Physical Parameters | Discovery Circumstances | Close-Approach Data ]
ABOUT SSD CREDITS/AWARDS PRIVACY/COPYRIGHT GLOSSARY LINKS
FirstGov 2015-Feb-01 08:42 UT
(server date/time)  
NASA Home Page
Site Manager:   Donald K. Yeomans
Webmaster  Alan B. Chamberlin